Kissimmee, FL

5:51 PM EST on November 15, 2019 (GMT -0500)
Kissimmee Municipal

Weather History for KISM - October, 2019

Change the Weather History Date:

Wednesday, October 23, 2019

  Actual Average Record
Temperature  
Mean Temperature 77 °F -  
Max Temperature 84 °F 83 °F 89 °F (1981)
Min Temperature 72 °F 63 °F 46 °F (1961)
Cooling Degree Days 12    
Growing Degree Days 27 (Base 50)    
Moisture  
Dew Point 63 °F    
Average Humidity 66    
Maximum Humidity 94    
Minimum Humidity 46    
Precipitation  
Precipitation 0.00 in - - ()
Sea Level Pressure  
Sea Level Pressure 30.06 in    
Wind  
Wind Speed 8 mph (NNE)    
Max Wind Speed 15 mph    
Max Gust Speed 17 mph    
Visibility 10 miles    
Events      
Averages and records for this station are not official NWS values.
T = Trace of Precipitation, MM = Missing Value Source: NWS Daily Summary

Daily Weather History Graph

Daily Weather History Graph

Search for Another Location

Airport or City:

Astronomy

Oct. 23, 2019 Rise Set
Actual Time 7:31 AM EDT 6:48 PM EDT
Civil Twilight 7:07 AM EDT 7:12 PM EDT
Nautical Twilight 6:39 AM EDT 7:40 PM EDT
Astronomical Twilight 6:12 AM EDT 8:07 PM EDT
Moon 2:24 AM EDT (10/23) 4:05 PM EDT (10/23)
Length of Visible Light 12h 05m
Length of Day
11h 17m
Waning Crescent, 27% of the Moon is Illuminated
Oct 23
Waning Crescent
Oct 27
New
Nov 4
First Quarter
Nov 12
Full
Nov 19
Last Quarter

Hourly Weather History & Observations

Time (EDT) Temp. Heat Index Dew Point Humidity Pressure Visibility Wind Dir Wind Speed Gust Speed Precip Events Conditions
12:56 AM 75.9 °F - 73.9 °F 94% 30.02 in 10.0 mi Calm Calm - N/A   Clear
1:56 AM 75.9 °F - 73.0 °F 91% 30.02 in 10.0 mi NW 8.1 mph - N/A   Clear
2:56 AM 75.0 °F - 73.0 °F 94% 30.02 in 10.0 mi NNW 9.2 mph - N/A   Clear
3:32 AM 75.2 °F - 71.6 °F 89% 30.01 in 10.0 mi NNW 10.4 mph - N/A   Mostly Cloudy
3:56 AM 75.9 °F - 72.0 °F 87% 30.00 in 10.0 mi NNW 8.1 mph - N/A   Mostly Cloudy
4:56 AM 73.9 °F - 68.0 °F 82% 30.01 in 10.0 mi North 9.2 mph - N/A   Overcast
5:06 AM 73.4 °F - 66.2 °F 78% 30.02 in 10.0 mi North 9.2 mph - N/A   Scattered Clouds
5:56 AM 73.0 °F - 62.1 °F 68% 30.03 in 10.0 mi North 9.2 mph - N/A   Partly Cloudy
6:10 AM 73.4 °F - 60.8 °F 65% 30.03 in 10.0 mi North 9.2 mph - N/A   Mostly Cloudy
7:56 AM 72.0 °F - 55.9 °F 57% 30.06 in 10.0 mi North 6.9 mph - N/A   Mostly Cloudy
8:53 AM 73.4 °F - 53.6 °F 50% 30.08 in 10.0 mi North 9.2 mph - N/A   Partly Cloudy
8:56 AM 73.0 °F - 53.1 °F 49% 30.08 in 10.0 mi North 10.4 mph - N/A   Partly Cloudy
9:56 AM 75.0 °F - 53.1 °F 46% 30.09 in 10.0 mi North 10.4 mph - N/A   Clear
10:56 AM 77.0 °F - 55.9 °F 48% 30.10 in 10.0 mi NNE 9.2 mph - N/A   Clear
11:56 AM 79.0 °F - 59.0 °F 50% 30.09 in 10.0 mi ENE 13.8 mph 17.3 mph N/A   Clear
12:56 PM 81.0 °F 81.7 °F 61.0 °F 50% 30.08 in 10.0 mi NNE 10.4 mph - N/A   Clear
1:56 PM 82.0 °F 83.0 °F 62.1 °F 51% 30.06 in 10.0 mi NE 5.8 mph - N/A   Clear
2:56 PM 82.9 °F 84.0 °F 63.0 °F 51% 30.05 in 10.0 mi NE 9.2 mph 16.1 mph N/A   Clear
3:56 PM 82.9 °F 84.6 °F 64.9 °F 54% 30.05 in 10.0 mi ENE 15.0 mph - N/A   Clear
4:56 PM 82.0 °F 83.8 °F 64.9 °F 56% 30.06 in 10.0 mi ENE 13.8 mph - N/A   Partly Cloudy
5:56 PM 80.1 °F 81.7 °F 64.0 °F 58% 30.06 in 10.0 mi NE 11.5 mph - N/A   Partly Cloudy
6:56 PM 77.0 °F - 64.0 °F 64% 30.08 in 10.0 mi ENE 9.2 mph - N/A   Mostly Cloudy
7:56 PM 75.9 °F - 63.0 °F 64% 30.10 in 10.0 mi NE 6.9 mph - N/A   Mostly Cloudy
8:56 PM 75.0 °F - 63.0 °F 66% 30.11 in 10.0 mi NE 8.1 mph - N/A   Overcast
9:56 PM 73.9 °F - 63.0 °F 68% 30.12 in 10.0 mi NE 6.9 mph - N/A   Clear
10:56 PM 73.0 °F - 64.0 °F 73% 30.13 in 10.0 mi NE 5.8 mph - N/A   Clear
11:56 PM 73.0 °F - 64.0 °F 73% 30.13 in 10.0 mi NE 3.5 mph - N/A   Clear